Find Starlink 6120

NORAD ID: 56131 Int'l Des: 2023-046 Owner: SPXS Country: US Constellation: starlink operational
LEOCIRCULAR

实时位置

正在加载3D地球...

关于 Starlink 6120

正在加载描述...

即将过境

Passes for default location (London). Set your location on the main map for personalized predictions.

高度历史

Loading altitude history...

两行轨道根数

1 56131U 23046AR 26106.57564972 .00000973 00000-0 44900-4 0 9991
2 56131 43.0045 293.0814 0001370 269.5678 90.5016 15.27562828167994
Epoch: Apr 16, 2026 • Age: 11 hours

当前状态

高度 494.7 km
速度 7.62 km/s
星下点 -41.01°S, 31.6°W
发射日期 Mar 29, 2023
运行时间 3 years
类型 internet

技术详情

分类 Payload
质量 305.00 kg
干质量 290.00 kg
总质量 305.00 kg
长度 0.20 m
直径 2.80 m
跨度 9.00 m
形状 Box + pan
制造商 SPXS
平台类型 Starlink
阶段状态 In Orbit
所有者/国家 SPXS/US

Most Searched